Flag for Germany Weather past 2 weeks in Stuhr, Lower Saxony, Germany

Now
41 °F

Clear.


Feels Like: 32 °F
Forecast: 38 / 44 °F
Wind: 18 mph from West

Location: Bremen Airport

Current Time: Dec 20, 2014 at 11:02:54 PM

Latest Report: Dec 20, 2014 at 10:20 PM


Visibility: 10 mi

Pressure: 30.07 "Hg

Humidity: 81%

Dew point: 36 °F

Location of StuhrLocation

Historic Weather in Stuhr — Graph

°F

Stuhr temperature yesterday

Maximum temperature yesterday: 54 °F (at 12:20 AM)
Minimum temperature yesterday: 41 °F (at 9:20 PM)
Average temperature yesterday: 48 °F

Past Weeks' High & Low Weather Summary

 TemperatureHumidityPressure
High54 °F (Dec 18, 3:50 PM)100% (Dec 6, 5:20 AM)30.33 "Hg (Dec 6, 5:20 AM)
Low32 °F (Dec 13, 8:50 PM)70% (Dec 10, 4:20 AM)29.24 "Hg (Dec 12, 11:50 AM)
Average41 °F90%29.84 "Hg
* Reported Dec 5 9:20 PM — Dec 20 9:50 PM, Stuhr, Weather by CustomWeather, © 2014

Note: Actual official high and low records may vary slightly from our data, if they occured in-between our weather recording intervals... More about our weather records

Advertising

Stuhr weather history for previous 24 hours

 ConditionsComfort  
Time TempWeatherWind HumidityBarometerVisibility
9:50 PM
Dec 20
41 °FClear.17 mph81%30.04 "Hg10 mi
9:20 PM39 °FClear.16 mph93%30.04 "Hg10 mi
8:50 PM39 °FPassing clouds.15 mph87%30.01 "HgN/A
8:20 PM39 °FClear.16 mph81%30.01 "Hg10 mi
7:50 PM39 °FClear.16 mph81%29.98 "Hg10 mi
7:20 PM39 °FPassing clouds.15 mph81%29.98 "HgN/A
6:50 PM41 °FPassing clouds.16 mph81%29.95 "HgN/A
6:20 PM39 °FPassing clouds.18 mph87%29.92 "HgN/A
5:50 PM41 °FThunderstorms. Passing clouds.30 mph87%29.92 "HgN/A
5:20 PM41 °FSprinkles. Passing clouds.16 mph87%29.86 "HgN/A
4:50 PM41 °FSprinkles. Passing clouds.26 mph87%29.86 "HgN/A
4:20 PM43 °FSprinkles. Passing clouds.22 mph87%29.86 "HgN/A
3:50 PM43 °FSprinkles. Partly sunny.23 mph81%29.83 "HgN/A
3:20 PM43 °FSprinkles. Scattered clouds.22 mph87%29.83 "HgN/A
2:50 PM43 °FPassing clouds.18 mph87%29.83 "HgN/A
2:20 PM41 °FSprinkles. Scattered clouds.23 mph87%29.83 "HgN/A
1:50 PM41 °FSprinkles. Scattered clouds.23 mph87%29.83 "HgN/A
1:20 PM41 °FSprinkles. Partly sunny.29 mph87%29.83 "HgN/A
12:20 PM45 °FSprinkles. Partly sunny.26 mph81%29.80 "HgN/A
11:50 AM46 °FPartly sunny.30 mph71%29.80 "HgN/A
11:20 AM46 °FPartly sunny.28 mph71%29.83 "HgN/A
10:50 AM45 °FPartly sunny.28 mph76%29.83 "HgN/A
10:20 AM45 °FPartly sunny.28 mph76%29.83 "HgN/A
9:50 AM45 °FPartly sunny.28 mph76%29.86 "HgN/A
9:20 AM45 °FPartly sunny.25 mph76%29.83 "HgN/A
8:50 AM45 °FPartly sunny.24 mph76%29.86 "HgN/A
8:20 AM45 °FPassing clouds.24 mph76%29.86 "HgN/A
7:50 AM45 °FPartly cloudy.23 mph76%29.86 "HgN/A
7:20 AM45 °FPassing clouds.25 mph76%29.86 "HgN/A
6:50 AM45 °FSprinkles. Passing clouds.23 mph76%29.89 "HgN/A
6:20 AM45 °FPassing clouds.26 mph76%29.89 "HgN/A
5:50 AM45 °FPassing clouds.24 mph76%29.89 "HgN/A
5:20 AM45 °FPassing clouds.23 mph76%29.89 "HgN/A
4:50 AM45 °FPassing clouds.24 mph76%29.89 "HgN/A
4:20 AM45 °FPassing clouds.23 mph76%29.89 "HgN/A
3:50 AM45 °FPassing clouds.23 mph76%29.89 "HgN/A
3:20 AM43 °FQuite cool.22 mph81%29.89 "HgN/A
2:50 AM43 °FPassing clouds.22 mph81%29.92 "HgN/A
2:20 AM43 °FPassing clouds.21 mph81%29.89 "HgN/A
1:50 AM43 °FPassing clouds.20 mph76%29.89 "HgN/A
1:20 AM43 °FClear.22 mph81%29.89 "Hg10 mi
12:50 AM43 °FPassing clouds.22 mph81%29.89 "HgN/A
12:20 AM43 °FPassing clouds.20 mph81%29.89 "HgN/A
11:50 PM
Dec 19
43 °FPassing clouds.20 mph81%29.89 "HgN/A
11:20 PM43 °FSprinkles. Passing clouds.18 mph81%29.89 "HgN/A
Weather by CustomWeather, © 2014

See weather overviewHow to use our weather pages